Regional Weather Roundup
Issued by NWS

Home | Current Version | Previous Version | Graphics & Text | Print | Product List | Glossary On
Versions: 1 2 3 4 5 6 7 8 9 10 11 12 13 14 15 16 17 18 19 20 21 22 23 24 25 26 27 28 29 30 31 32 33 34 35 36 37 38 39 40 41 42 43 44 45 46 47 48 49 50
000
ASUS43 KIND 230859
RWRIN

WEATHER ROUNDUP FOR INDIANA
NATIONAL WEATHER SERVICE INDIANAPOLIS IN
500 AM EDT WED APR 23 2014

NOTE: "FAIR" INDICATES FEW OR NO CLOUDS BELOW 12,000 FEET WITH NO
SIGNIFICANT WEATHER AND/OR OBSTRUCTIONS TO VISIBILITY.

* - STATION DOES NOT REPORT WEATHER SUCH AS PRECIPITATION OR FOG.

+ - STATION NOT QUALITY CONTROLLED BY THE NATIONAL WEATHER SERVICE.
    USE DATA WITH CAUTION...ESPECIALLY DEWPOINT AND RELATIVE
    HUMIDITY OBSERVATIONS.

INZ001>003-010>013-019-020-231000-
NORTHWEST INDIANA

CITY           SKY/WX    TMP DP  RH WIND       PRES   REMARKS
GARY /AIRPORT/ CLEAR     38  29  70 N12G18    30.13R
LA PORTE +     CLEAR     34  27  75 N14G20    30.09S WCI  25
MONTICELLO +   CLEAR     35  29  80 N7        30.07R WCI  29
VALPARAISO     CLEAR     34  27  75 N8        30.10R WCI  27

$$

LMZ046-743>745-231000-
SOUTHERN LAKE MICHIGAN

STATION/POSITION TIME  TEMP WIND        PRES
                       AIR  DIR/SP/G
                 (UTC) (F)  (DEG/KT/KT) (MB)
MICHIGAN CITY    0800   37  330/ 14/ 17   N/A

$$

INZ004-005-014>016-021>024-231000-
NORTH CENTRAL INDIANA

CITY           SKY/WX    TMP DP  RH WIND       PRES   REMARKS
GOSHEN         CLEAR     35  28  75 N10       30.05R WCI  27
SOUTH BEND     CLEAR     34  26  72 N9        30.08R WCI  27

$$

INZ006>009-017-018-025>027-231000-
NORTHEAST INDIANA

CITY           SKY/WX    TMP DP  RH WIND       PRES   REMARKS
ANGOLA *+      CLEAR     34  28  80 N6        30.02R WCI  29
FORT WAYNE     CLEAR     36  27  69 NW8       30.03R

$$

INZ028-029-035-036-043>045-051>053-231000-
WEST CENTRAL INDIANA

CITY           SKY/WX    TMP DP  RH WIND       PRES   REMARKS
GREENCASTLE +  CLEAR     36  28  75 N8        30.07R
LAFAYETTE      CLEAR     34  27  75 N6        30.09R WCI  29
TERRE HAUTE    CLEAR     41  30  65 N7        30.08R

$$

INZ030>032-037>040-046>048-054>057-064-065-231000-
CENTRAL INDIANA

CITY           SKY/WX    TMP DP  RH WIND       PRES   REMARKS
INDIANAPOLIS   CLEAR     38  26  62 N8        30.05R
-EAGLE CREEK   CLEAR     38  26  62 N7        30.05R
KOKOMO *+      CLEAR     36  25  64 N7        30.06R
MT COMFORT *+  CLEAR     36  28  75 N8        30.05R
SHELBYVILLE    CLEAR     39  29  67 N9        30.04R

$$

INZ033-034-041-042-049-050-058-059-231000-
EAST CENTRAL INDIANA

CITY           SKY/WX    TMP DP  RH WIND       PRES   REMARKS
MUNCIE         CLEAR     36  28  73 N8        30.03R

$$

INZ060-061-067>069-081>083-085>088-231000-
SOUTHWEST INDIANA

CITY           SKY/WX    TMP DP  RH WIND       PRES   REMARKS
EVANSVILLE     CLEAR     48  37  65 NE9       30.04R
HUNTINGBURG *+ CLEAR     43  30  61 NE8       30.05R

$$

INZ062-063-066-070>080-084-089>092-231000-
SOUTH CENTRAL AND SOUTHEAST INDIANA

CITY           SKY/WX    TMP DP  RH WIND       PRES   REMARKS
BLOOMINGTON    CLEAR     40  31  70 N7        30.05R

$$




USA.gov is the U.S. government's official web portal to all federal, state and local government web resources and services.